FW2547 Weather Reports


time (UTC)temp
C
wind
direction
speed
KPH
gust
KPH
rain 1hr
cm
rain 24hr
cm
rain mn
cm
humidity
%
barometer
mb
20200229080018 10 98 0.0 0.0 0.00 0.00 0.00 27 1019.2
20200229074513 11 98 0.0 1.6 0.00 0.00 0.00 26 1019.5
20200229073028 11 98 1.6 6.4 0.00 0.00 0.00 25 1019.6
20200229071504 11 98 3.2 6.4 0.00 0.00 0.00 25 1019.8
20200229070002 11 98 3.2 4.8 0.00 0.00 0.00 25 1020.0
20200229064512 11 98 3.2 9.7 0.00 0.00 0.00 26 1019.9
20200229063256 11 94 8.0 9.7 0.00 0.00 0.00 25 1020.0
20200229063002 11 93 8.0 9.7 0.00 0.00 0.00 25 1020.0
20200229061723 11 86 4.8 8.0 0.00 0.00 0.00 24 1020.1
20200229060209 12 46 3.2 6.4 0.00 0.00 0.00 23 1020.4
20200229054649 12 59 4.8 8.0 0.00 0.00 0.00 23 1020.6
20200229053149 12 79 3.2 9.7 0.00 0.00 0.00 23 1021.0
20200229051506 12 30 1.6 6.4 0.00 0.00 0.00 24 1021.2
20200229050006 13 64 0.0 6.4 0.00 0.00 0.00 23 1021.3
20200229044504 13 103 1.6 6.4 0.00 0.00 0.00 23 1021.4
20200229043021 13 103 3.2 9.7 0.00 0.00 0.00 23 1021.2
20200229041637 14 99 8.0 9.7 0.00 0.00 0.00 20 1021.1
20200229040059 15 100 1.6 4.8 0.00 0.00 0.00 19 1021.3
20200229034545 15 100 3.2 4.8 0.00 0.00 0.00 19 1021.5
20200229033104 15 99 1.6 4.8 0.00 0.00 0.00 18 1021.7
20200229031554 15 32 4.8 9.7 0.00 0.00 0.00 17 1021.4
20200229030044 15 36 0.0 4.8 0.00 0.00 0.00 17 1021.4
20200229024644 16 30 1.6 12.9 0.00 0.00 0.00 16 1021.3
20200229023041 16 17 6.4 11.3 0.00 0.00 0.00 16 1021.5
20200229021628 16 50 0.0 6.4 0.00 0.00 0.00 17 1021.3
20200229020052 16 38 0.0 8.0 0.00 0.00 0.00 17 1021.4
20200229014545 16 30 1.6 11.3 0.00 0.00 0.00 16 1021.3
20200229013045 16 30 4.8 9.7 0.00 0.00 0.00 16 1021.5
20200229011535 17 19 4.8 8.0 0.00 0.00 0.00 16 1021.7
20200229010030 17 15 4.8 8.0 0.00 0.00 0.00 16 1021.6
20200229004608 17 18 3.2 9.7 0.00 0.00 0.00 15 1021.4
20200229003040 17 25 6.4 14.5 0.00 0.00 0.00 15 1021.2
20200229001534 17 28 1.6 12.9 0.00 0.00 0.00 16 1021.2
20200229000058 17 9 8.0 12.9 0.00 0.00 0.00 15 1021.4
20200228234736 17 46 4.8 14.5 0.00 0.00 0.00 15 1021.3
20200228233136 17 5 12.9 17.7 0.00 0.00 0.00 16 1021.3
20200228231604 17 19 8.0 12.9 0.00 0.00 0.00 15 1021.6
20200228230117 17 5 6.4 16.1 0.00 0.00 0.00 16 1021.9
20200228224601 17 5 8.0 12.9 0.00 0.00 0.00 16 1021.9
20200228223021 16 320 1.6 12.9 0.00 0.00 0.00 16 1022.1
20200228221539 17 13 0.0 12.9 0.00 0.00 0.00 16 1022.1
20200228220012 17 17 6.4 20.9 0.00 0.00 0.00 16 1022.1
20200228214742 16 30 0.0 12.9 0.00 0.00 0.00 16 1022.4
20200228213204 16 355 6.4 14.5 0.00 0.00 0.00 16 1022.4
20200228211758 16 5 3.2 9.7 0.00 0.00 0.00 16 1022.6
20200228210145 16 64 3.2 8.0 0.00 0.00 0.00 16 1022.8
20200228204507 16 98 3.2 9.7 0.00 0.00 0.00 17 1022.9
20200228203005 16 133 1.6 12.9 0.00 0.00 0.00 18 1023.3
20200228201502 15 355 8.0 14.5 0.00 0.00 0.00 17 1023.6
20200228200240 15 13 4.8 12.9 0.00 0.00 0.00 17 1023.8
20200228194701 15 9 4.8 8.0 0.00 0.00 0.00 18 1024.2
20200228193113 15 102 1.6 4.8 0.00 0.00 0.00 19 1024.8
20200228191729 15 101 0.0 6.4 0.00 0.00 0.00 19 1025.4
20200228190122 14 78 1.6 9.7 0.00 0.00 0.00 20 1025.7
20200228184538 14 42 0.0 11.3 0.00 0.00 0.00 20 1026.1
20200228183016 13 103 3.2 11.3 0.00 0.00 0.00 20 1026.2
20200228181523 13 138 0.0 3.2 0.00 0.00 0.00 22 1026.4
20200228180016 12 138 0.0 3.2 0.00 0.00 0.00 23 1026.8
20200228174630 12 138 0.0 1.6 0.00 0.00 0.00 24 1026.8
20200228173113 11 137 0.0 3.2 0.00 0.00 0.00 25 1026.7
20200228171528 10 190 0.0 3.2 0.00 0.00 0.00 27 1026.8
20200228170017 10 190 0.0 1.6 0.00 0.00 0.00 28 1026.7
20200228164634 10 189 0.0 4.8 0.00 0.00 0.00 28 1027.0
20200228163102 9 189 0.0 1.6 0.00 0.00 0.00 28 1026.7
20200228161636 9 190 0.0 1.6 0.00 0.00 0.00 29 1026.6
20200228160110 8 217 0.0 1.6 0.00 0.00 0.00 31 1026.8
20200228154511 7 216 0.0 1.6 0.00 0.00 0.00 33 1026.6
20200228153211 7 217 0.0 4.8 0.00 0.00 0.00 33 1026.7
20200228151633 6 217 1.6 4.8 0.00 0.00 0.00 34 1026.4
20200228150244 6 216 0.0 3.2 0.00 0.00 0.00 35 1026.2
20200228144645 6 217 0.0 1.6 0.00 0.00 0.00 36 1026.1
20200228143317 5 217 0.0 1.6 0.00 0.00 0.00 36 1026.0
20200228141637 5 217 0.0 1.6 0.00 0.00 0.00 36 1025.9
20200228140214 5 217 0.0 1.6 0.00 0.00 0.00 36 1025.8
20200228134534 5 217 0.0 0.0 0.00 0.00 0.00 36 1025.6
20200228133032 5 217 0.0 0.0 0.00 0.00 0.00 36 1025.5
20200228131556 5 217 0.0 0.0 0.00 0.00 0.00 36 1025.2
20200228130020 5 217 0.0 0.0 0.00 0.00 0.00 36 1025.1
20200228124519 5 217 0.0 0.0 0.00 0.00 0.00 37 1025.0
20200228123017 5 217 0.0 1.6 0.00 0.00 0.00 37 1024.8
20200228121523 5 217 0.0 4.8 0.00 0.00 0.00 37 1024.5
20200228120009 5 217 1.6 8.0 0.00 0.00 0.00 36 1024.5
20200228114503 5 217 1.6 3.2 0.00 0.00 0.00 35 1024.3
20200228113119 5 217 0.0 0.0 0.00 0.00 0.00 34 1024.2
20200228111747 6 217 0.0 0.0 0.00 0.00 0.00 33 1024.2
20200228110125 6 217 0.0 0.0 0.00 0.00 0.00 33 1024.4
20200228104645 6 217 0.0 1.6 0.00 0.00 0.00 32 1024.7
20200228103154 6 217 0.0 3.2 0.00 0.00 0.00 32 1024.7
20200228101653 6 217 0.0 3.2 0.00 0.00 0.00 31 1024.7
20200228100140 7 217 3.2 4.8 0.00 0.00 0.00 29 1024.8
20200228094804 7 217 3.2 8.0 0.00 0.00 0.00 30 1024.7
20200228093119 7 217 3.2 6.4 0.00 0.00 0.00 29 1024.9
20200228091658 7 217 0.0 4.8 0.00 0.00 0.00 30 1024.9
20200228090109 7 217 0.0 0.0 0.00 0.00 0.00 28 1024.9
20200228084609 8 217 0.0 4.8 0.00 0.00 0.00 27 1024.9
20200228083131 8 217 4.8 12.9 0.00 0.00 0.00 27 1025.1
20200228081715 8 217 11.3 14.5 0.00 0.00 0.00 26 1025.0